FREQUENCY,Transmission
 1441535777 ,-045.03
 1442024433 ,-044.33
 1442513089 ,-043.87
 1443001745 ,-043.53
 1443490401 ,-043.30
 1443979058 ,-043.05
 1444467714 ,-042.92
 1444956370 ,-042.71
 1445445026 ,-042.58
 1445933682 ,-042.45
 1446422339 ,-042.32
 1446910995 ,-042.13
 1447399651 ,-041.91
 1447888307 ,-041.75
 1448376963 ,-041.63
 1448865620 ,-041.47
 1449354276 ,-041.33
 1449842932 ,-041.30
 1450331588 ,-041.37
 1450820244 ,-041.51
 1451308901 ,-041.74
 1451797557 ,-042.02
 1452286213 ,-042.24
 1452774869 ,-042.44
 1453263525 ,-042.62
 1453752182 ,-042.70
 1454240838 ,-042.81
 1454729494 ,-042.88
 1455218150 ,-042.95
 1455706806 ,-043.07
 1456195462 ,-043.18
 1456684119 ,-043.31
 1457172775 ,-043.39
 1457661431 ,-043.46
 1458150087 ,-043.55
 1458638743 ,-043.64
 1459127400 ,-043.74
 1459616056 ,-043.85
 1460104712 ,-043.94
 1460593368 ,-044.00
 1461082024 ,-044.04
 1461570681 ,-044.05
 1462059337 ,-044.09
 1462547993 ,-044.14
 1463036649 ,-044.19
 1463525305 ,-044.23
 1464013962 ,-044.27
 1464502618 ,-044.32
 1464991274 ,-044.40
 1465479930 ,-044.51
 1465968586 ,-044.58
 1466457243 ,-044.73
 1466945899 ,-044.97
 1467434555 ,-045.36
 1467923211 ,-045.73
 1468411867 ,-046.14
 1468900524 ,-046.65
 1469389180 ,-047.17
 1469877836 ,-047.71
 1470366492 ,-048.30
 1470855148 ,-049.19
 1471343805 ,-050.38
 1471832461 ,-051.96
 1472321117 ,-053.99
 1472809773 ,-055.67
 1473298429 ,-055.37
 1473787086 ,-052.79
 1474275742 ,-049.63
 1474764398 ,-046.65
 1475253054 ,-044.20
 1475741710 ,-042.14
 1476230366 ,-040.44
 1476719023 ,-038.97
 1477207679 ,-037.86
 1477696335 ,-036.82
 1478184991 ,-035.90
 1478673647 ,-035.03
 1479162304 ,-034.28
 1479650960 ,-033.60
 1480139616 ,-033.12
 1480628272 ,-032.68
 1481116928 ,-032.31
 1481605585 ,-031.98
 1482094241 ,-031.74
 1482582897 ,-031.52
 1483071553 ,-031.21
 1483560209 ,-030.89
 1484048866 ,-030.59
 1484537522 ,-030.41
 1485026178 ,-030.34
 1485514834 ,-030.35
 1486003490 ,-030.32
 1486492147 ,-030.22
 1486980803 ,-030.19
 1487469459 ,-030.35
 1487958115 ,-030.71
 1488446771 ,-031.21
 1488935428 ,-031.78
 1489424084 ,-032.31
 1489912740 ,-032.68
 1490401396 ,-032.85
 1490890052 ,-032.92
 1491378709 ,-032.88
 1491867365 ,-032.89
 1492356021 ,-033.04
 1492844677 ,-033.33
 1493333333 ,-033.60
 1493821990 ,-033.75
 1494310646 ,-033.79
 1494799302 ,-033.82
 1495287958 ,-034.10
 1495776614 ,-034.58
 1496265271 ,-035.35
 1496753927 ,-036.10
 1497242583 ,-036.68
 1497731239 ,-037.10
 1498219895 ,-037.46
 1498708551 ,-037.79
 1499197208 ,-038.13
 1499685864 ,-038.38
 1500174520 ,-038.53
 1500663176 ,-038.57
 1501151832 ,-038.60
 1501640489 ,-038.74
 1502129145 ,-039.07
 1502617801 ,-039.51
 1503106457 ,-039.90
 1503595113 ,-040.16
 1504083770 ,-040.36
 1504572426 ,-040.56
 1505061082 ,-040.74
 1505549738 ,-040.93
 1506038394 ,-041.20
 1506527051 ,-041.53
 1507015707 ,-042.00
 1507504363 ,-042.62
 1507993019 ,-043.52
 1508481675 ,-044.81
 1508970332 ,-046.20
 1509458988 ,-047.59
 1509947644 ,-048.95
 1510436300 ,-049.95
 1510924956 ,-050.07
 1511413613 ,-047.79
 1511902269 ,-044.76
 1512390925 ,-042.30
 1512879581 ,-040.43
 1513368237 ,-038.91
 1513856894 ,-037.32
 1514345550 ,-035.74
 1514834206 ,-034.47
 1515322862 ,-033.60
 1515811518 ,-032.56
 1516300175 ,-031.33
 1516788831 ,-030.07
 1517277487 ,-028.96
 1517766143 ,-028.10
 1518254799 ,-027.31
 1518743455 ,-026.53
 1519232112 ,-025.91
 1519720768 ,-025.27
 1520209424 ,-024.54
 1520698080 ,-023.66
 1521186736 ,-022.75
 1521675393 ,-021.79
 1522164049 ,-020.76
 1522652705 ,-019.84
 1523141361 ,-019.02
 1523630017 ,-018.16
 1524118674 ,-017.21
 1524607330 ,-016.31
 1525095986 ,-015.43
 1525584642 ,-014.46
 1526073298 ,-013.46
 1526561955 ,-012.42
 1527050611 ,-011.42
 1527539267 ,-010.48
 1528027923 ,-009.61
 1528516579 ,-008.80
 1529005236 ,-008.08
 1529493892 ,-007.42
 1529982548 ,-006.81
 1530471204 ,-006.33
 1530959860 ,-005.92
 1531448517 ,-005.60
 1531937173 ,-005.35
 1532425829 ,-005.15
 1532914485 ,-004.96
 1533403141 ,-004.83
 1533891798 ,-004.72
 1534380454 ,-004.61
 1534869110 ,-004.53
 1535357766 ,-004.45
 1535846422 ,-004.39
 1536335079 ,-004.32
 1536823735 ,-004.25
 1537312391 ,-004.19
 1537801047 ,-004.14
 1538289703 ,-004.11
 1538778360 ,-004.04
 1539267016 ,-004.01
 1539755672 ,-004.00
 1540244328 ,-004.01
 1540732984 ,-004.03
 1541221640 ,-004.08
 1541710297 ,-004.10
 1542198953 ,-004.15
 1542687609 ,-004.21
 1543176265 ,-004.27
 1543664921 ,-004.38
 1544153578 ,-004.50
 1544642234 ,-004.63
 1545130890 ,-004.78
 1545619546 ,-004.95
 1546108202 ,-005.13
 1546596859 ,-005.33
 1547085515 ,-005.56
 1547574171 ,-005.79
 1548062827 ,-006.04
 1548551483 ,-006.29
 1549040140 ,-006.54
 1549528796 ,-006.77
 1550017452 ,-007.00
 1550506108 ,-007.26
 1550994764 ,-007.55
 1551483421 ,-007.86
 1551972077 ,-008.18
 1552460733 ,-008.49
 1552949389 ,-008.79
 1553438045 ,-009.10
 1553926702 ,-009.45
 1554415358 ,-009.81
 1554904014 ,-010.22
 1555392670 ,-010.64
 1555881326 ,-011.08
 1556369983 ,-011.53
 1556858639 ,-011.99
 1557347295 ,-012.45
 1557835951 ,-012.91
 1558324607 ,-013.38
 1558813264 ,-013.88
 1559301920 ,-014.40
 1559790576 ,-014.93
 1560279232 ,-015.46
 1560767888 ,-016.02
 1561256545 ,-016.57
 1561745201 ,-017.11
 1562233857 ,-017.68
 1562722513 ,-018.22
 1563211169 ,-018.79
 1563699825 ,-019.37
 1564188482 ,-019.94
 1564677138 ,-020.54
 1565165794 ,-021.13
 1565654450 ,-021.69
 1566143106 ,-022.27
 1566631763 ,-022.85
 1567120419 ,-023.41
 1567609075 ,-023.97
 1568097731 ,-024.54
 1568586387 ,-025.12
 1569075044 ,-025.71
 1569563700 ,-026.27
 1570052356 ,-026.85
 1570541012 ,-027.42
 1571029668 ,-028.00
 1571518325 ,-028.60
 1572006981 ,-029.20
 1572495637 ,-029.80
 1572984293 ,-030.39
 1573472949 ,-030.98
 1573961606 ,-031.58
 1574450262 ,-032.19
 1574938918 ,-032.77
 1575427574 ,-033.37
 1575916230 ,-033.99
 1576404887 ,-034.65
 1576893543 ,-035.36
 1577382199 ,-036.10
 1577870855 ,-036.89
 1578359511 ,-037.71
 1578848168 ,-038.62
 1579336824 ,-039.62
 1579825480 ,-040.81
 1580314136 ,-042.03
 1580802792 ,-042.78
 1581291449 ,-043.67
 1581780105 ,-044.66
 1582268761 ,-045.00
 1582757417 ,-045.21
 1583246073 ,-045.46
 1583734729 ,-044.64
 1584223386 ,-043.22
 1584712042 ,-042.76
 1585200698 ,-042.66
 1585689354 ,-042.38
 1586178010 ,-042.03
 1586666667 ,-041.58
 1587155323 ,-041.05
 1587643979 ,-040.39
 1588132635 ,-039.60
 1588621291 ,-038.77
 1589109948 ,-038.11
 1589598604 ,-037.75
 1590087260 ,-037.50
 1590575916 ,-037.24
 1591064572 ,-036.90
 1591553229 ,-036.62
 1592041885 ,-036.25
 1592530541 ,-036.19
 1593019197 ,-036.04
 1593507853 ,-035.93
 1593996510 ,-035.67
 1594485166 ,-035.45
 1594973822 ,-035.21
 1595462478 ,-034.91
 1595951134 ,-034.75
 1596439791 ,-034.83
 1596928447 ,-035.01
 1597417103 ,-035.08
 1597905759 ,-034.96
 1598394415 ,-034.94
 1598883072 ,-034.78
 1599371728 ,-034.65
 1599860384 ,-034.84
 1600349040 ,-035.03
 1600837696 ,-035.03
 1601326353 ,-035.04
 1601815009 ,-034.99
 1602303665 ,-034.99
 1602792321 ,-035.18
 1603280977 ,-035.21
 1603769634 ,-035.24
 1604258290 ,-035.30
 1604746946 ,-035.34
 1605235602 ,-035.35
 1605724258 ,-035.64
 1606212914 ,-035.95
 1606701571 ,-036.35
 1607190227 ,-036.66
 1607678883 ,-036.98
 1608167539 ,-037.00
 1608656195 ,-037.27
 1609144852 ,-037.58
 1609633508 ,-038.02
 1610122164 ,-038.60
 1610610820 ,-039.27
 1611099476 ,-039.86
 1611588133 ,-040.46
 1612076789 ,-040.92
 1612565445 ,-041.45
 1613054101 ,-042.02
 1613542757 ,-042.71
 1614031414 ,-043.44
 1614520070 ,-044.29
 1615008726 ,-045.08
 1615497382 ,-046.00
 1615986038 ,-046.60
 1616474695 ,-047.60
 1616963351 ,-048.30
 1617452007 ,-049.14
 1617940663 ,-049.30
 1618429319 ,-050.29
 1618917976 ,-050.44
 1619406632 ,-050.90
 1619895288 ,-051.59
 1620383944 ,-051.64
 1620872600 ,-052.14
 1621361257 ,-052.00
 1621849913 ,-052.07
 1622338569 ,-052.21
 1622827225 ,-052.15
 1623315881 ,-051.85
 1623804538 ,-051.70
 1624293194 ,-052.18
 1624781850 ,-052.13
 1625270506 ,-051.90
 1625759162 ,-052.06
 1626247818 ,-051.98
 1626736475 ,-051.96
 1627225131 ,-051.99
 1627713787 ,-051.99
 1628202443 ,-051.96
 1628691099 ,-052.63
 1629179756 ,-052.64
 1629668412 ,-053.22
 1630157068 ,-053.69
 1630645724 ,-053.92
 1631134380 ,-054.65
 1631623037 ,-055.03
 1632111693 ,-055.25
 1632600349 ,-055.20
 1633089005 ,-057.13
 1633577661 ,-058.23
 1634066318 ,-059.60
 1634554974 ,-061.64
 1635043630 ,-063.23
 1635532286 ,-065.97
 1636020942 ,-066.61
 1636509599 ,-066.52
